|
NORAD ID: 35053 Int'l Code: 1997-051NZ
Perigee: 399.4 km
Apogee: 506.7 km
Inclination: 86.5 °
Period: 93.5 minutes
Semi major axis: 6824 km
Launch date: September 14, 1997
Source: United States (US)
Note: This is SATELLITE DEBRIS
Two Line Element Set (TLE):
1 35053U 97051NZ 13132.58664200 .00403089 00000-0 86583-2 0 2145
2 35053 086.5437 187.1565 0078628 219.2406 140.4032 15.40071464222494
Source:
NASA's NSSDC Master Catalog entry for IRIDIUM 33 DEB
|